Preview of NWS' New Version of Forecast
This preview is not operational and should not be used for support decisions.

Regional Weather Roundup (RWR)

Issued by National Weather Service (NWS)

                            
000
ASUS46 KSEW 211310
RWRWA 

WASHINGTON REGIONAL WEATHER ROUNDUP
NATIONAL WEATHER SERVICE SEATTLE WA
500 AM PST THU FEB 21 2019

NOTE:"FAIR" INDICATES FEW OR NO CLOUDS BELOW 12,000 FEET WITH NO 
SIGNIFICANT WEATHER AND/OR OBSTRUCTIONS TO VISIBILITY.

WAZ507-509-555>559-211400-
SEATTLE, TACOMA, EVERETT, AND VICINITY
  
CITY           SKY/WX    TMP DP  RH WIND       PRES   REMARKS
EVERETT        PTCLDY    30  29  96 NW3       30.08R FOG              
BOEING FIELD   PTCLDY    35  31  85 NE3       30.10R                  
RENTON         MOCLDY    32  29  88 CALM      30.10R                  
SEATAC AIRPORT PTCLDY    32  28  85 CALM      30.07R                  
JBLM-MCCHORD   MOCLDY    32  32 100 CALM      30.09R                  
PUYALLUP       FAIR      28  28 100 CALM      30.07R FOG              
BREMERTON      CLEAR     32  29  88 N6        30.08R                  
JBLM-FT LEWIS  PTCLDY    33  33 100 CALM      30.08R                  
TACOMA NARROWS CLEAR     35  29  78 N8        30.08R                  
$$
 
WAZ001-503-506-510-514-515-211400-
NORTH INTERIOR
  
CITY           SKY/WX    TMP DP  RH WIND       PRES   REMARKS
BELLINGHAM     CLEAR     33  21  61 N10       30.10S WCI  25          
FRIDAY HARBOR  CLEAR     36  31  82 VRB3      30.12S                  
EASTSOUND      CLEAR     37  27  65 CALM      30.11S                  
PORT ANGELES   MOCLDY    30  28  92 SW7       30.12S                  
EDIZ HOOK      CLOUDY    37  33  85 SW5       30.13S                  
PORT TOWNSEND  FAIR      32  28  86 W5        30.10R                  
NAS WHIDBEY    NOT AVBL                                               
ARLINGTON      CLEAR     24  22  91 CALM      30.10R                  
BURLINGTON     CLEAR     30  27  86 NE3       30.10S                  
$$
 
WAZ020-022-039-040-504-511-512-211400-
SOUTHWEST INTERIOR
  
CITY           SKY/WX    TMP DP  RH WIND       PRES   REMARKS
SHELTON        CLEAR     24  22  91 CALM      30.07R                  
OLYMPIA        CLEAR     27  26  96 CALM      30.09R FOG              
CHEHALIS       FOG       30  30 100 NE3       30.09R VSB 1/2          
KELSO          CLEAR     26  25  96 CALM      30.09R                  
VANCOUVER      FOG       29  28  96 CALM      30.07R VSB 1            
SCAPPOOSE, OR  CLEAR     29  27  92 CALM      30.06R                  
PORTLAND, OR   MOCLDY    32  29  88 CALM      30.07R                  
$$
 
WAZ021-516-517-211400-
WASHINGTON COAST
  
CITY           SKY/WX    TMP DP  RH WIND       PRES   REMARKS
FORKS          CLEAR     27  26  96 NE3       30.09S                  
HOQUIAM        PTCLDY    31  29  92 NE3       30.09R FOG              
ASTORIA, OR    CLEAR     30  29  96 CALM      30.06R                  
$$
 
WAZ019-023-024-040-567>569-211400-
CASCADE MOUNTAINS AND COLUMBIA GORGE
  
CITY           SKY/WX    TMP DP  RH WIND       PRES   REMARKS
STAMPEDE PASS  CLEAR     21  15  78 CALM      29.90R                  
TROUTDALE, OR  CLEAR     32  29  88 CALM      30.06S                  
HOOD RIVER, OR MOSUNNY   23  21  93 SW3       30.07R FOG              
THE DALLES, OR MOCLDY    28  25  88 NW6       30.08R                  
$$

WAZ026-027-041>044-520-521-211400-
EAST SLOPES
  
CITY           SKY/WX    TMP DP  RH WIND       PRES   REMARKS
OMAK           CLOUDY    31  23  72 N16G24    30.06R WCI  20          
WENATCHEE      CLOUDY    25  20  81 CALM      30.04R                  
ELLENSBURG     CLOUDY    19  14  81 E7        30.01R HAZE             
YAKIMA         MOCLDY    19  14  81 NW5       30.04R                  
SUNNYSIDE ARPT CLOUDY    19  17  94 N3        30.05  FOG              
YAKIMA TC      FAIR      20  15  79 CALM      30.00R                  
$$

WAZ028-034-035-211400-
COLUMBIA BASIN
  
CITY           SKY/WX    TMP DP  RH WIND       PRES   REMARKS
EPHRATA        PTCLDY    26  17  68 NE12      30.01R WCI  16          
MOSES LAKE     PTCLDY    17  11  77 NE5       30.02R                  
PASCO          CLOUDY    23  20  88 NW3       30.06R                  
RICHLAND ARPT  CLOUDY    23  21  93 CALM      30.07R                  
HERMISTON, OR  CLOUDY    29  25  85 NW3       30.04R                  
$$

WAZ036>038-211400-
NORTHEAST WASHINGTON
  
CITY           SKY/WX    TMP DP  RH WIND       PRES   REMARKS
SPOKANE GEIGER PTCLDY    15  12  88 NE9       29.96R                  
SPOKANE FELTS  PTCLDY    15  11  83 CALM      30.00R FOG              
FAIRCHILD AFB  CLEAR     17  15  92 NE9       29.94R                  
COEURDALENE,ID CLEAR     16  13  88 N14       29.98R WCI   2          
DEER PARK      CLEAR     15  11  83 N9        29.99R                  
$$

WAZ029>033-211400-
SOUTHEAST WASHINGTON
  
CITY           SKY/WX    TMP DP  RH WIND       PRES   REMARKS
PULLMAN        FOG       20  18  92 CALM      29.93R VSB 1/4          
LEWISTON, ID   LGT SNOW  26  23  88 SE3       29.98R FOG              
WALLA WALLA    LGT SNOW  27  24  89 S6        30.00R FOG              
PENDLETON, OR  CLOUDY    26  24  92 NW8       29.98R FOG              
$$